Location: Joplin, MO
(37.0842°N, 94.5133°W)
Time: 19:51:07
(UTC+02:00)

Transit 2A Rocket - Pass Details

Date: 27 March 2023
Orbit: 584 x 914 km, 66.7° (Epoch: 09 June)

Event Time Altitude Azimuth Distance (km) Brightness Sun altitude
Rises 17:10:37 0° 151° (SSE) 3,178 8.9 34.0°
Reaches altitude 10° 17:14:46 10° 118° (ESE) 2,349 9.0 34.7°
Maximum altitude 17:16:25 11° 100° (E) 2,288 8.8 35.0°
Drops below altitude 10° 17:18:06 10° 82° (E) 2,420 8.5 35.3°
Sets 17:22:33 0° 51° (NE) 3,439 8.6 36.1°
